Location: Canyon City
(32.5951°N, 116.5278°W)
Time: 03:13:50
(UTC+00:00)

Okean 1-7 Rocket - Pass Details

Date: 08 September 2024
Orbit: 611 x 646 km, 82.5° (Epoch: 10 October)

Event Time Altitude Azimuth Distance (km) Brightness Sun altitude
Rises 12:23:57 0° 347° (NNW) 2,932 7.1 -13.6°
Reaches altitude 10° 12:26:15 10° 342° (NNW) 2,015 6.2 -13.1°
Maximum altitude 12:30:35 51° 267° (W) 790 3.7 -12.3°
Drops below altitude 10° 12:34:50 10° 192° (SSW) 1,981 5.9 -11.4°
Sets 12:37:04 0° 187° (S) 2,877 6.8 -10.9°
